TimeCDT,TemperatureF,Dew PointF,Humidity,Sea Level PressureIn,VisibilityMPH,Wind Direction,Wind SpeedMPH,Gust SpeedMPH,PrecipitationIn,Events,Conditions,WindDirDegrees,DateUTC
12:54 AM,54.0,48.9,83,30.04,10.0,Calm,Calm,-,N/A,,Clear,0,2013-09-04 05:54:00
1:54 AM,53.1,48.9,86,30.03,10.0,Calm,Calm,-,N/A,,Clear,0,2013-09-04 06:54:00
2:54 AM,55.0,50.0,83,30.03,10.0,West,4.6,-,N/A,,Clear,280,2013-09-04 07:54:00
3:54 AM,55.0,50.0,83,30.04,10.0,WNW,4.6,-,N/A,,Clear,290,2013-09-04 08:54:00
4:54 AM,55.0,50.0,83,30.04,10.0,West,5.8,-,N/A,,Clear,280,2013-09-04 09:54:00
5:54 AM,55.0,51.1,86,30.06,10.0,West,4.6,-,N/A,,Clear,280,2013-09-04 10:54:00
6:54 AM,57.0,52.0,83,30.08,10.0,WSW,3.5,-,N/A,,Clear,250,2013-09-04 11:54:00
7:54 AM,57.9,54.0,87,30.09,10.0,West,5.8,-,N/A,,Clear,270,2013-09-04 12:54:00
8:54 AM,64.0,55.9,75,30.09,10.0,West,6.9,-,N/A,,Clear,280,2013-09-04 13:54:00
9:54 AM,72.0,57.0,59,30.09,10.0,West,9.2,-,N/A,,Clear,280,2013-09-04 14:54:00
10:54 AM,75.0,57.9,55,30.10,10.0,NW,5.8,-,N/A,,Clear,320,2013-09-04 15:54:00
11:54 AM,75.9,59.0,56,30.11,10.0,NNE,6.9,-,N/A,,Clear,20,2013-09-04 16:54:00
12:54 PM,80.1,60.1,50,30.11,10.0,NW,9.2,-,N/A,,Clear,320,2013-09-04 17:54:00
1:54 PM,80.1,60.1,50,30.10,10.0,NNW,6.9,-,N/A,,Clear,340,2013-09-04 18:54:00
2:54 PM,82.0,59.0,45,30.09,10.0,WNW,6.9,-,N/A,,Clear,300,2013-09-04 19:54:00
3:54 PM,80.1,61.0,52,30.09,10.0,North,10.4,-,N/A,,Overcast,360,2013-09-04 20:54:00
4:54 PM,81.0,61.0,50,30.08,10.0,North,8.1,-,N/A,,Clear,350,2013-09-04 21:54:00
5:54 PM,79.0,60.1,52,30.09,10.0,North,8.1,-,N/A,,Clear,360,2013-09-04 22:54:00
6:54 PM,73.9,60.1,62,30.09,10.0,NNE,6.9,-,N/A,,Clear,20,2013-09-04 23:54:00
7:54 PM,70.0,60.1,71,30.11,10.0,North,5.8,-,N/A,,Clear,10,2013-09-05 00:54:00
8:54 PM,69.1,57.0,65,30.12,10.0,NNE,5.8,-,N/A,,Clear,20,2013-09-05 01:54:00
9:54 PM,66.0,57.0,73,30.14,10.0,NE,8.1,-,N/A,,Clear,40,2013-09-05 02:54:00
10:54 PM,64.0,55.9,75,30.15,10.0,NE,10.4,-,N/A,,Clear,40,2013-09-05 03:54:00
11:54 PM,61.0,54.0,78,30.17,10.0,NE,6.9,-,N/A,,Clear,40,2013-09-05 04:54:00